TimeEST,TemperatureF,Dew PointF,Humidity,Sea Level PressureIn,VisibilityMPH,Wind Direction,Wind SpeedMPH,Gust SpeedMPH,PrecipitationIn,Events,Conditions,WindDirDegrees,DateUTC
12:15 AM,53.6,39.2,58,30.15,10.0,SSE,5.8,-,N/A,,Overcast,150,2013-11-06 05:15:00
12:35 AM,53.6,39.2,58,30.14,10.0,South,6.9,-,N/A,,Overcast,170,2013-11-06 05:35:00
12:55 AM,53.6,37.4,54,30.12,10.0,Calm,Calm,-,N/A,,Overcast,0,2013-11-06 05:55:00
1:35 AM,53.6,37.4,54,30.11,10.0,SSE,5.8,-,N/A,,Overcast,160,2013-11-06 06:35:00
1:55 AM,53.6,37.4,54,30.10,10.0,South,5.8,-,N/A,,Overcast,180,2013-11-06 06:55:00
2:15 AM,53.6,37.4,54,30.09,10.0,SSE,4.6,-,N/A,,Overcast,150,2013-11-06 07:15:00
2:35 AM,53.6,37.4,54,30.08,10.0,SSE,5.8,-,N/A,,Overcast,160,2013-11-06 07:35:00
2:55 AM,55.4,37.4,51,30.08,10.0,South,5.8,-,N/A,,Overcast,180,2013-11-06 07:55:00
3:15 AM,53.6,37.4,54,30.06,10.0,South,5.8,-,N/A,,Overcast,190,2013-11-06 08:15:00
3:35 AM,55.4,37.4,51,30.05,10.0,South,8.1,-,N/A,,Overcast,190,2013-11-06 08:35:00
3:55 AM,55.4,39.2,54,30.05,10.0,South,8.1,-,N/A,,Overcast,190,2013-11-06 08:55:00
4:15 AM,55.4,39.2,54,30.03,10.0,South,8.1,-,N/A,,Overcast,180,2013-11-06 09:15:00
4:35 AM,55.4,41.0,58,30.03,10.0,South,8.1,-,N/A,,Overcast,190,2013-11-06 09:35:00
4:55 AM,55.4,41.0,58,30.03,10.0,South,9.2,-,N/A,,Overcast,190,2013-11-06 09:55:00
5:15 AM,55.4,44.6,67,30.02,10.0,South,8.1,16.1,N/A,Rain,Light Rain,190,2013-11-06 10:15:00
5:35 AM,53.6,44.6,72,30.02,10.0,SSW,6.9,-,N/A,,Mostly Cloudy,200,2013-11-06 10:35:00
5:55 AM,55.4,44.6,67,30.01,10.0,South,4.6,-,N/A,Rain,Light Rain,190,2013-11-06 10:55:00
6:15 AM,55.4,44.6,67,30.00,10.0,South,6.9,-,N/A,Rain,Rain,190,2013-11-06 11:15:00
6:35 AM,53.6,46.4,77,29.99,10.0,SSW,8.1,-,N/A,Rain,Light Rain,200,2013-11-06 11:35:00
6:55 AM,55.4,46.4,72,29.99,10.0,South,9.2,-,N/A,Rain,Light Rain,190,2013-11-06 11:55:00
7:15 AM,55.4,46.4,72,29.98,10.0,South,8.1,-,N/A,,Drizzle,190,2013-11-06 12:15:00
7:35 AM,55.4,46.4,72,29.98,10.0,South,10.4,17.3,N/A,Rain,Light Rain,190,2013-11-06 12:35:00
7:55 AM,55.4,48.2,77,29.99,10.0,SSW,13.8,18.4,0.02,Rain,Rain,200,2013-11-06 12:55:00
8:15 AM,53.6,48.2,82,29.98,10.0,SSW,13.8,17.3,0.01,Rain,Light Rain,200,2013-11-06 13:15:00
8:35 AM,53.6,48.2,82,29.97,10.0,South,12.7,20.7,0.02,,Light Drizzle,190,2013-11-06 13:35:00
9:15 AM,53.6,48.2,82,29.98,10.0,SSW,11.5,19.6,0.01,Rain,Light Rain,200,2013-11-06 14:15:00
9:35 AM,53.6,48.2,82,29.97,10.0,SSW,12.7,20.7,0.01,,Drizzle,200,2013-11-06 14:35:00
9:55 AM,53.6,48.2,82,29.97,10.0,SSW,11.5,21.9,0.01,,Light Drizzle,200,2013-11-06 14:55:00
10:15 AM,53.6,48.2,82,29.96,10.0,SSW,11.5,19.6,N/A,Rain,Rain,200,2013-11-06 15:15:00
10:35 AM,53.6,46.4,77,29.96,10.0,SSW,9.2,19.6,0.01,Rain,Rain,200,2013-11-06 15:35:00
10:55 AM,53.6,48.2,82,29.96,10.0,SSW,11.5,19.6,0.01,Rain,Light Rain,200,2013-11-06 15:55:00
11:15 AM,53.6,48.2,82,29.95,10.0,SSW,13.8,21.9,0.01,,Light Drizzle,200,2013-11-06 16:15:00
11:35 AM,55.4,46.4,72,29.93,10.0,SSW,11.5,19.6,0.01,Rain,Light Rain,200,2013-11-06 16:35:00
11:55 AM,55.4,48.2,77,29.93,7.0,SSW,16.1,20.7,0.01,Rain,Light Rain,200,2013-11-06 16:55:00
12:15 PM,55.4,50.0,82,29.92,7.0,SSW,12.7,21.9,N/A,,Drizzle,200,2013-11-06 17:15:00
12:35 PM,53.6,50.0,88,29.91,3.0,SSW,13.8,21.9,N/A,,Overcast,200,2013-11-06 17:35:00
12:55 PM,53.6,50.0,88,29.90,10.0,SSW,13.8,23.0,N/A,Rain,Light Rain,200,2013-11-06 17:55:00
1:15 PM,53.6,50.0,88,29.89,4.0,SSW,13.8,21.9,N/A,Rain,Light Rain,210,2013-11-06 18:15:00
1:35 PM,53.6,50.0,88,29.89,10.0,SSW,10.4,26.5,N/A,Rain,Light Rain,210,2013-11-06 18:35:00
1:55 PM,53.6,50.0,88,29.86,7.0,South,13.8,25.3,N/A,,Light Drizzle,190,2013-11-06 18:55:00
2:15 PM,53.6,50.0,88,29.86,10.0,SSW,12.7,19.6,N/A,Rain,Light Rain,210,2013-11-06 19:15:00
2:35 PM,53.6,50.0,88,29.89,10.0,SW,12.7,25.3,N/A,,Overcast,220,2013-11-06 19:35:00
2:55 PM,53.6,50.0,88,29.91,10.0,SW,17.3,25.3,N/A,,Overcast,220,2013-11-06 19:55:00
3:15 PM,53.6,50.0,88,29.90,10.0,SW,10.4,21.9,N/A,,Overcast,220,2013-11-06 20:15:00
3:35 PM,55.4,50.0,82,29.91,10.0,SW,15.0,24.2,N/A,,Overcast,230,2013-11-06 20:35:00
3:55 PM,55.4,50.0,82,29.90,10.0,SW,11.5,26.5,N/A,,Overcast,220,2013-11-06 20:55:00
4:15 PM,55.4,50.0,82,29.91,10.0,SW,9.2,18.4,N/A,,Light Drizzle,220,2013-11-06 21:15:00
4:35 PM,53.6,50.0,88,29.90,7.0,SW,12.7,20.7,N/A,Rain,Rain,220,2013-11-06 21:35:00
4:55 PM,53.6,50.0,88,29.90,4.0,SW,10.4,17.3,N/A,,Light Drizzle,220,2013-11-06 21:55:00
5:15 PM,53.6,51.8,94,29.90,5.0,WSW,11.5,17.3,N/A,,Overcast,240,2013-11-06 22:15:00
5:35 PM,53.6,51.8,94,29.91,5.0,SW,11.5,17.3,N/A,,Overcast,230,2013-11-06 22:35:00
5:55 PM,53.6,51.8,94,29.91,3.0,WSW,9.2,18.4,N/A,Rain,Rain,240,2013-11-06 22:55:00
6:15 PM,53.6,51.8,94,29.93,3.0,West,16.1,20.7,N/A,,Heavy Drizzle,260,2013-11-06 23:15:00
6:35 PM,50.0,46.4,87,29.95,5.0,West,16.1,24.2,0.01,Rain,Rain,270,2013-11-06 23:35:00
6:55 PM,46.4,42.8,87,29.97,4.0,WNW,18.4,25.3,0.03,Rain,Rain,290,2013-11-06 23:55:00
7:15 PM,44.6,42.8,93,29.98,5.0,WNW,12.7,24.2,N/A,Rain,Light Rain,290,2013-11-07 00:15:00
7:35 PM,44.6,41.0,87,29.99,7.0,WNW,12.7,-,N/A,Rain,Light Rain,290,2013-11-07 00:35:00
7:55 PM,44.6,41.0,87,30.00,5.0,WNW,11.5,-,N/A,Rain,Rain,290,2013-11-07 00:55:00
8:15 PM,42.8,41.0,93,30.00,7.0,WNW,13.8,20.7,N/A,Rain,Rain,300,2013-11-07 01:15:00
8:35 PM,42.8,39.2,87,30.02,10.0,WNW,16.1,21.9,0.01,,Overcast,290,2013-11-07 01:35:00
8:55 PM,42.8,39.2,87,30.01,10.0,WNW,12.7,18.4,0.01,,Overcast,300,2013-11-07 01:55:00
9:15 PM,42.8,39.2,87,30.01,10.0,WNW,12.7,19.6,N/A,,Overcast,290,2013-11-07 02:15:00
9:35 PM,42.8,39.2,87,30.03,10.0,WNW,10.4,-,N/A,,Overcast,300,2013-11-07 02:35:00
9:55 PM,42.8,39.2,87,30.04,10.0,WNW,13.8,19.6,N/A,,Overcast,290,2013-11-07 02:55:00
10:15 PM,42.8,37.4,81,30.04,10.0,WNW,10.4,21.9,N/A,,Overcast,290,2013-11-07 03:15:00
10:35 PM,42.8,37.4,81,30.05,10.0,WNW,9.2,21.9,N/A,,Overcast,300,2013-11-07 03:35:00
10:55 PM,42.8,37.4,81,30.06,10.0,West,9.2,-,N/A,,Overcast,280,2013-11-07 03:55:00
11:15 PM,42.8,37.4,81,30.05,5.0,WNW,11.5,16.1,N/A,,Drizzle,290,2013-11-07 04:15:00
11:35 PM,42.8,37.4,81,30.06,10.0,WNW,10.4,-,N/A,Rain,Light Rain,300,2013-11-07 04:35:00
11:55 PM,42.8,37.4,81,30.05,10.0,WNW,11.5,-,N/A,,Overcast,300,2013-11-07 04:55:00